Location: San Gennaro Vesuviano
(40.8833°N, 14.5333°E)
Time: 10:02:24
(UTC+00:00)

Cosmos 1812 Rocket - Pass Details

Date: 22 April 2021
Orbit: 606 x 631 km, 82.5° (Epoch: 11 May)

Event Time Altitude Azimuth Distance (km) Brightness Sun altitude
Exits shadow 18:37:32 - 158° (SSE) 2,520 6.3 -9.4°
Reaches altitude 10° 18:38:58 10° 151° (SSE) 1,994 5.7 -9.6°
Maximum altitude 18:42:50 31° 90° (E) 1,114 4.4 -10.3°
Drops below altitude 10° 18:46:46 10° 29° (NNE) 2,017 6.2 -10.9°
Sets 18:49:12 0° 19° (NNE) 2,932 7.1 -11.3°
